Theta_e
322 322 323 325 325 325 325 326 328 329 328 328 328 330 332 333 333 333 332 331 331 331 329 329 328 327 328 328 328 327 326 323 322 321 318 323 332 335 334 333 336 335 333 327 324 320 319 320 320 321 321 320 321 318 318 313 310 313 305 303 301 304 304 307 306 305 305 304 304 306 309 309 308 309 310 313 312 312 315 313 320 321 319 325 322 326 335 333
322 322 323 323 324 325 326 326 327 327 328 328 328 329 330 332 333 333 332 331 331 330 329 329 328 328 328 328 328 326 325 324 321 320 319 333 333 333 332 333 336 336 332 325 320 317 318 318 320 320 320 317 323 318 318 313 312 308 306 305 302 306 305 306 305 306 305 303 304 304 306 309 310 310 311 308 309 310 310 312 317 316 318 322 323 326 333 331
322 323 324 323 324 324 325 325 325 325 326 327 329 328 328 331 331 332 332 331 331 330 328 329 329 328 328 328 326 325 323 321 320 316 322 330 330 330 330 331 334 335 329 320 320 319 319 319 320 318 319 317 318 316 317 312 313 309 303 301 304 306 304 306 306 303 304 304 304 304 305 306 311 311 313 308 308 310 308 309 313 313 315 319 322 325 332 331
321 322 323 324 324 324 325 325 325 324 325 326 327 328 329 330 330 331 331 331 331 330 329 329 328 328 327 327 327 324 323 318 312 318 326 333 330 329 330 330 334 334 330 326 325 321 321 322 320 318 317 315 317 318 315 312 312 310 307 304 305 305 304 304 305 304 303 303 303 304 304 303 308 310 310 309 307 308 310 312 312 313 314 320 323 325 331 329
321 321 322 323 323 323 325 325 325 325 325 326 326 327 329 330 330 330 331 331 330 330 330 329 328 328 327 327 324 323 318 309 312 320 326 332 332 331 330 328 331 333 330 325 324 323 322 320 319 317 316 313 317 316 315 314 317 310 309 311 304 303 303 303 304 303 303 302 302 303 303 304 308 307 308 308 305 306 309 312 313 313 314 322 323 325 330 329
320 321 322 323 323 323 324 325 326 326 326 327 327 327 328 328 328 329 330 330 330 330 330 329 328 327 327 326 325 323 317 301 319 321 332 333 332 333 331 330 331 332 330 323 320 321 319 319 318 315 314 315 315 312 316 314 314 307 311 308 307 303 301 302 303 301 301 303 302 303 304 305 304 305 307 307 307 309 311 312 312 313 315 326 326 326 327 328
320 321 322 322 323 323 323 325 325 326 326 326 328 327 328 328 328 328 329 330 330 330 329 329 327 327 327 325 325 320 315 318 317 323 330 331 333 332 331 331 334 327 328 319 319 318 319 318 318 316 315 315 316 315 316 311 312 312 311 309 306 303 301 302 303 302 302 301 302 304 304 302 303 301 307 306 309 311 313 312 312 314 317 325 324 326 326 328
321 321 321 321 322 323 323 324 325 326 326 327 327 328 328 328 328 327 328 329 330 330 330 328 326 327 326 323 317 312 313 316 318 323 329 331 330 329 330 330 328 325 322 318 317 317 319 317 316 319 315 313 316 315 314 313 312 310 311 306 304 302 302 302 305 304 302 303 305 303 301 302 304 303 304 304 307 309 311 313 311 315 320 324 324 325 326 328
320 321 321 321 321 322 323 323 324 325 326 327 328 327 328 328 328 327 326 328 329 330 329 328 326 327 326 322 315 311 310 319 325 325 330 329 326 328 329 324 327 321 320 319 319 319 318 316 318 319 313 314 319 316 313 312 309 313 313 308 303 304 303 306 305 303 304 307 305 303 303 304 304 304 302 304 307 309 311 313 313 314 317 321 322 324 324 327
320 321 321 321 321 321 322 323 324 324 324 326 327 327 327 328 328 328 327 328 329 329 329 327 326 326 322 318 315 308 318 325 330 328 328 327 326 328 326 325 324 323 319 317 318 319 317 318 318 321 320 318 318 315 316 313 309 313 312 306 305 305 304 307 304 305 307 306 307 303 303 303 303 303 300 308 308 309 311 311 313 313 314 318 320 323 324 326
320 320 318 321 321 321 322 322 323 324 324 325 326 327 327 327 328 327 327 327 328 329 329 328 326 324 320 318 310 308 322 328 330 329 328 327 325 322 322 323 324 322 321 320 316 319 320 322 322 323 319 314 316 314 314 313 314 312 309 307 306 306 305 306 306 305 307 305 304 303 303 305 304 302 301 306 308 309 309 310 313 313 313 315 318 322 325 325
320 320 318 320 321 321 322 322 323 323 324 325 326 326 326 327 326 326 327 327 328 328 328 328 327 323 322 317 312 314 322 326 331 329 329 327 323 323 324 324 325 323 322 318 317 320 321 322 325 319 311 320 311 315 313 314 314 311 311 307 309 309 307 309 306 307 308 306 305 304 303 304 303 298 303 306 309 309 309 310 313 313 313 315 317 320 324 325
320 319 319 320 321 321 321 322 322 323 323 324 326 325 325 326 326 326 326 326 327 328 328 328 326 325 319 308 315 320 326 329 329 328 326 327 325 324 323 325 326 327 326 323 321 322 325 323 322 316 319 316 314 308 314 316 313 311 311 310 308 308 307 312 313 312 309 309 305 306 299 305 309 302 304 308 309 309 307 308 311 312 313 314 317 319 323 325
319 319 319 320 320 320 321 321 322 322 322 323 325 325 325 325 325 325 326 326 327 327 328 327 327 322 315 310 312 319 326 331 327 324 324 323 321 320 321 322 325 326 327 324 326 326 326 324 321 318 322 316 311 315 312 310 312 307 310 309 306 305 306 311 312 312 308 307 308 308 299 303 306 303 306 307 307 308 306 307 309 312 313 315 318 320 321 324
319 319 319 319 319 320 320 321 321 321 321 322 323 324 324 322 321 322 326 326 327 327 327 326 326 317 309 312 316 322 322 327 321 321 322 320 318 316 318 321 320 322 325 325 323 325 325 323 321 314 311 314 315 309 306 308 308 310 303 302 307 304 307 305 309 310 307 301 309 307 300 302 306 310 305 307 306 307 306 306 307 310 312 315 317 319 320 322
318 318 319 319 319 319 320 320 321 320 320 322 322 322 323 323 323 323 324 326 327 327 327 321 319 317 310 305 313 324 321 316 317 322 322 323 320 317 319 320 320 320 323 321 323 322 321 319 314 314 312 312 310 307 306 305 306 307 304 304 303 305 306 306 304 307 307 302 306 307 302 305 304 309 308 306 306 306 306 306 307 308 311 313 314 316 318 320
317 318 318 318 319 319 319 319 320 320 320 321 321 321 322 323 323 321 322 324 325 327 322 317 319 319 303 314 319 313 313 317 323 322 320 324 323 321 319 317 317 318 319 319 320 319 318 314 313 312 313 309 310 309 301 300 300 302 305 303 306 304 306 304 301 305 306 305 300 303 302 304 308 303 303 304 305 304 304 304 306 307 308 312 314 315 317 318
317 317 318 318 318 319 319 319 320 320 320 320 320 320 321 321 322 318 318 320 325 324 322 324 318 312 307 310 305 309 317 317 318 319 321 323 324 321 319 316 317 317 316 313 317 312 315 310 311 306 307 307 307 304 299 294 299 299 301 302 303 306 306 306 304 301 304 304 304 303 299 301 305 308 310 310 305 304 304 304 305 306 307 309 312 313 314 316
316 316 317 317 317 318 318 319 319 320 320 320 320 321 322 322 322 321 314 315 312 309 305 305 306 296 295 304 314 315 316 318 319 317 315 318 321 322 321 320 318 314 309 308 309 310 311 309 308 304 300 302 303 304 302 303 304 303 304 303 304 302 303 303 305 301 302 299 299 302 301 302 304 305 307 308 309 307 306 307 306 305 306 307 308 311 313 314
315 315 315 316 317 317 318 318 319 319 319 317 316 315 314 307 307 305 313 311 305 307 309 310 310 311 310 310 311 317 320 319 311 314 315 319 318 317 316 316 314 312 308 303 306 308 311 302 299 299 302 303 306 307 307 307 307 306 306 305 304 304 306 306 306 299 302 301 301 302 302 302 304 305 306 308 307 306 306 306 307 306 305 306 306 307 310 312
314 314 314 315 316 316 316 316 318 318 319 315 314 308 299 300 295 293 302 306 308 308 306 310 313 312 311 313 315 313 309 310 314 312 314 320 317 314 310 312 308 303 305 307 305 310 308 300 300 303 305 306 307 308 308 307 307 306 304 304 302 305 302 307 305 301 301 302 303 306 304 303 304 306 308 308 306 303 303 304 305 307 307 306 307 307 308 310
313 313 314 314 314 313 314 314 316 318 319 313 310 305 306 308 313 315 310 298 305 309 309 311 315 312 316 316 318 316 313 306 306 311 316 317 312 307 308 308 305 301 306 305 305 302 299 297 302 306 308 309 308 308 308 307 305 305 303 303 302 302 305 305 302 302 301 301 302 305 302 303 305 306 307 307 308 308 306 304 305 306 307 307 307 307 308 309
313 312 313 314 314 313 313 313 315 317 312 309 306 306 306 314 320 319 316 308 303 312 308 307 307 310 311 316 316 317 308 303 301 305 307 312 309 308 308 305 303 304 304 303 298 297 295 300 305 308 308 306 306 307 307 306 305 303 303 301 299 304 302 299 304 301 301 301 301 301 299 301 304 305 305 307 308 309 310 307 306 306 305 306 307 307 308 308
312 313 312 313 313 312 312 313 314 312 310 309 307 307 313 316 319 316 312 298 297 305 309 310 310 310 309 308 315 313 307 306 306 302 312 310 307 311 307 305 303 302 300 302 301 298 298 303 308 308 307 306 304 305 305 303 301 304 304 302 301 302 303 302 298 299 299 301 300 298 297 298 302 302 304 307 309 309 310 308 307 307 308 308 309 310 309 307
312 313 313 313 312 313 312 312 309 307 310 309 307 311 314 317 317 318 308 300 299 298 315 311 313 312 314 321 318 310 310 310 309 311 312 311 309 308 305 309 305 299 301 303 302 301 301 306 309 306 306 305 305 302 304 303 299 300 304 303 303 304 302 302 302 300 300 300 296 296 293 295 302 305 306 308 307 306 307 306 306 306 306 307 305 306 308 310
311 312 311 312 312 312 313 306 306 309 308 305 307 312 314 317 315 317 302 290 283 295 305 295 313 304 320 309 313 311 310 303 311 311 311 313 317 309 308 304 306 299 302 302 301 302 302 307 307 305 304 304 304 302 304 304 299 298 299 305 304 304 303 303 301 301 295 293 297 298 292 290 300 300 303 304 304 304 306 305 304 305 306 306 306 306 307 308
311 310 311 311 312 312 305 300 310 310 303 304 310 313 314 316 316 310 294 284 281 296 293 305 304 306 316 310 310 309 292 295 308 310 308 312 311 313 303 302 304 306 306 306 301 298 303 304 305 305 303 302 301 299 303 304 301 297 305 305 305 303 302 302 301 301 298 303 302 299 298 291 292 299 304 305 304 304 305 307 307 306 305 305 305 306 306 307
310 310 311 311 311 312 306 306 307 304 303 309 312 313 315 315 312 309 292 276 274 300 293 300 304 318 314 311 311 305 304 307 299 303 310 311 311 307 306 302 300 301 304 304 292 301 303 302 303 302 302 301 300 302 305 306 302 300 303 306 304 304 303 302 301 299 299 294 292 298 301 291 291 299 304 304 302 303 304 306 307 308 309 307 307 306 307 307
309 310 310 310 311 310 311 307 306 303 309 313 313 315 315 312 306 295 284 273 296 294 313 297 317 310 308 309 305 307 304 307 300 304 309 307 306 307 301 304 303 304 306 305 298 297 303 305 305 305 302 299 304 306 306 305 301 299 304 306 305 304 301 300 299 296 296 292 288 295 298 289 291 299 301 305 301 301 304 307 307 307 309 309 309 310 308 308
309 309 310 310 309 308 308 309 306 309 312 313 313 314 314 306 296 284 279 271 297 285 300 301 302 297 305 299 300 303 300 301 303 303 306 304 305 307 305 312 305 302 299 298 297 297 299 301 305 306 303 305 306 307 307 306 306 302 302 300 299 299 297 297 296 295 292 288 291 296 298 295 288 297 300 301 301 302 304 305 306 308 308 309 309 309 311 309
308 309 309 310 305 306 307 301 305 312 312 314 314 313 307 298 285 279 273 281 296 291 303 298 295 306 298 296 293 301 301 300 299 300 296 301 299 304 304 301 305 299 293 293 293 296 299 301 303 303 303 307 306 300 303 307 301 301 299 297 297 294 296 293 292 293 287 286 291 296 297 297 286 294 301 303 301 302 302 302 303 305 306 307 307 307 306 305
308 308 309 308 308 310 301 300 307 312 311 313 311 302 298 280 285 276 275 297 283 289 292 293 299 299 298 300 297 298 295 298 299 298 294 296 295 295 298 293 296 287 287 290 290 295 294 298 301 298 301 304 302 301 299 301 300 299 299 298 292 288 288 285 288 284 285 285 288 292 295 292 291 296 301 302 304 303 304 305 304 304 304 305 306 306 306 306
307 308 309 308 308 306 306 310 311 311 311 309 304 300 288 280 272 280 283 286 281 298 292 301 297 298 298 296 295 299 301 293 299 298 298 297 296 296 301 299 299 296 286 293 291 290 292 297 296 298 300 302 305 297 293 292 295 296 295 293 290 285 283 281 285 287 288 291 290 291 293 288 294 297 302 302 304 306 304 303 303 303 302 303 303 305 306 308
307 307 305 307 307 308 308 309 310 312 307 305 298 292 285 276 275 288 284 286 290 298 300 297 298 299 297 291 294 298 293 298 297 296 298 293 295 292 296 300 301 297 297 294 288 289 285 286 293 296 293 302 302 303 299 295 294 296 300 298 292 290 286 282 285 282 284 288 287 293 288 287 289 295 298 300 302 303 302 303 304 304 304 303 303 304 304 304
307 306 306 306 306 307 308 309 310 308 307 300 292 286 278 276 282 281 282 287 291 297 295 300 296 295 293 294 297 298 298 291 298 296 294 292 289 292 293 295 299 301 299 291 292 291 290 290 296 301 301 301 300 305 304 298 296 298 300 302 295 292 297 288 288 288 288 288 285 285 288 295 296 302 303 304 303 302 302 302 304 303 303 304 303 304 305 305
305 303 305 302 302 305 307 308 307 308 303 296 286 280 278 283 280 286 284 295 296 291 294 297 296 290 289 290 296 295 302 293 296 295 293 293 293 292 298 298 297 300 297 293 294 288 292 288 295 297 300 300 301 305 302 303 288 294 296 290 295 300 298 291 286 288 287 288 286 291 289 293 299 300 302 303 302 302 303 305 302 302 303 303 304 304 304 304
301 301 298 301 302 306 307 306 306 304 299 292 283 278 285 288 293 290 293 292 295 296 294 287 288 289 286 285 287 294 294 297 294 293 287 295 291 295 297 299 302 301 302 300 294 300 291 287 294 296 294 301 301 304 303 304 303 297 290 294 300 301 299 292 286 286 286 283 286 292 288 291 292 289 302 303 302 303 304 305 302 303 302 301 304 305 304 305
300 300 299 300 303 306 307 307 304 301 296 287 280 284 290 286 294 293 295 294 297 297 292 290 291 296 288 288 286 290 294 291 290 293 288 293 287 300 298 298 302 302 303 305 297 297 297 284 289 293 297 296 299 302 299 301 302 298 295 304 294 287 286 292 289 283 283 282 284 289 290 289 292 293 297 297 298 299 301 302 301 300 300 301 302 303 304 305
299 296 291 299 304 305 305 306 302 297 290 282 282 282 287 290 295 294 296 295 298 295 291 292 289 294 295 289 290 291 292 288 292 289 287 290 289 297 297 300 298 303 304 303 299 298 299 288 287 293 294 295 297 298 288 293 297 299 302 297 302 297 292 288 288 289 289 284 284 285 289 286 295 295 299 298 299 301 300 301 301 300 301 301 302 303 303 305
295 291 288 301 304 305 306 303 298 293 285 279 282 283 291 289 293 296 297 296 294 293 292 293 294 291 294 293 293 287 292 293 292 290 292 293 293 300 298 302 300 301 304 302 299 300 293 297 284 288 296 295 289 294 292 293 289 291 294 292 295 294 296 296 295 290 288 286 286 286 285 290 298 301 300 301 302 303 301 301 301 302 302 303 303 304 305 304
296 290 291 303 304 305 302 297 289 283 282 285 287 286 289 289 293 295 297 299 297 301 295 294 294 290 292 292 291 294 291 292 293 291 293 293 294 289 300 300 303 300 303 300 298 298 289 291 285 286 287 289 292 298 299 298 295 294 293 292 294 291 288 286 285 295 291 288 285 285 283 290 299 301 302 302 303 302 302 302 303 302 302 303 304 305 305 306
291 282 287 302 305 304 297 286 285 289 286 283 283 288 288 294 292 294 295 297 297 295 300 297 298 295 294 294 294 294 293 292 293 292 294 292 296 297 299 304 303 304 299 293 295 300 297 293 287 284 287 290 294 293 294 296 299 297 297 294 297 296 294 290 285 287 289 289 287 286 284 288 300 301 301 302 301 300 300 300 300 301 302 303 304 305 307 307
289 286 299 302 304 301 292 285 288 286 284 287 292 291 293 292 291 294 294 296 293 297 296 294 295 294 295 295 295 294 295 291 294 292 295 296 297 300 304 303 305 303 302 297 298 293 295 288 285 286 290 292 293 296 297 296 296 296 297 298 297 294 295 293 291 290 288 288 286 287 284 289 299 301 301 301 299 299 299 300 301 301 301 302 303 305 305 307
289 289 293 301 303 299 289 280 280 282 285 289 289 289 293 291 292 291 292 295 293 293 293 294 296 299 295 297 296 292 297 289 295 295 294 298 296 305 305 304 305 301 300 296 294 297 291 290 288 282 282 285 288 291 292 296 294 292 293 295 297 298 297 295 291 292 288 289 289 287 282 289 291 298 299 298 297 296 297 299 300 301 303 303 303 304 306 306
290 292 292 294 299 298 287 287 285 284 285 285 286 286 288 290 293 294 293 293 296 296 294 292 295 298 296 297 294 295 297 295 290 296 297 298 298 301 305 305 305 301 303 303 299 301 293 291 288 281 278 276 276 278 281 285 288 291 295 295 295 296 296 291 287 289 285 289 290 287 287 294 295 297 297 297 297 297 298 299 299 301 302 301 304 305 305 306
286 279 287 290 293 292 290 294 290 287 286 286 285 286 288 287 292 295 296 293 297 297 295 295 297 298 296 295 292 291 292 296 293 291 294 294 292 297 304 304 303 303 299 297 298 299 291 292 291 289 286 284 286 288 295 295 291 287 290 293 293 296 297 295 291 288 286 289 288 290 292 294 292 295 295 297 297 297 297 298 297 299 300 302 303 306 308 307
291 282 283 280 290 289 287 289 287 289 285 289 283 288 286 288 290 292 296 291 296 297 296 295 296 294 294 293 291 290 291 292 294 295 293 294 291 296 304 304 304 301 294 295 298 295 289 289 291 292 292 291 293 292 295 294 290 291 290 291 293 293 294 291 288 287 293 289 286 293 295 292 294 294 296 297 297 298 298 298 299 301 302 303 304 305 302 303
281 286 288 289 284 281 282 284 287 287 289 290 286 290 287 287 288 287 294 295 297 298 294 294 294 297 296 293 292 287 289 289 290 291 291 288 291 296 299 302 300 296 296 295 298 295 290 288 291 292 292 291 294 294 294 294 293 292 292 291 290 292 292 288 290 293 295 289 288 294 296 293 295 296 297 298 298 298 299 300 301 302 302 302 302 302 302 302
289 290 288 292 283 286 287 288 289 287 286 288 288 289 287 287 287 290 291 292 293 295 295 288 292 296 297 297 294 289 290 286 286 290 290 289 291 293 292 295 297 295 297 292 294 292 292 289 291 291 289 290 291 293 294 293 291 291 291 291 292 292 292 292 293 294 294 293 295 297 296 296 298 299 299 300 301 301 301 302 300 300 301 302 302 303 303 304
284 284 284 290 289 287 287 289 289 288 285 287 284 287 288 288 287 290 293 293 289 292 297 291 292 296 297 297 295 291 292 293 293 289 293 291 290 294 293 294 291 292 295 291 293 294 294 289 292 290 288 287 289 292 294 294 291 288 290 292 292 292 293 293 294 294 295 294 295 295 295 294 300 302 301 302 302 303 301 300 300 302 303 303 303 303 304 304
293 292 292 286 283 285 287 287 287 287 285 287 285 287 288 289 289 292 292 296 292 292 295 293 295 296 298 297 296 296 299 298 298 297 297 295 291 296 294 294 297 290 292 291 292 292 294 290 291 289 286 285 287 289 292 290 289 288 288 290 291 291 290 292 291 294 293 291 293 294 292 293 299 301 302 302 301 300 300 301 301 302 303 302 302 303 303 304
294 295 294 290 282 287 285 287 287 286 281 286 287 289 288 289 291 293 290 296 297 299 298 296 296 297 296 296 295 297 301 301 301 302 299 300 304 301 301 300 299 294 292 291 294 291 291 290 287 288 285 285 286 289 289 288 287 285 286 290 292 293 294 295 296 297 296 296 292 289 291 298 300 300 300 300 299 300 300 301 301 302 303 303 302 303 304 305
Wind_Speed
16 17 14 10 10 10 9 10 9 9 8 13 15 12 11 12 13 13 14 16 13 12 12 13 15 15 14 13 13 12 11 11 10 11 10 5 8 8 5 4 2 6 4 5 6 7 7 6 6 4 4 5 4 3 2 0 3 2 4 3 6 6 6 2 1 4 2 2 6 4 2 4 5 6 3 1 5 6 2 6 5 2 4 4 6 2 12 14
15 16 13 11 10 10 11 11 10 7 6 8 13 15 12 13 13 14 14 15 14 14 12 11 12 13 13 13 14 12 11 11 12 13 15 5 5 6 7 6 3 7 5 6 10 10 7 7 5 5 4 5 3 2 5 2 1 4 4 4 6 6 3 4 5 5 3 5 4 3 0 4 0 2 6 6 6 8 7 8 6 7 7 6 6 6 13 14
14 14 11 11 12 12 10 11 9 8 9 7 6 12 12 10 13 14 16 16 15 16 16 13 11 12 14 14 14 14 12 9 10 16 14 10 5 3 4 5 4 4 7 6 8 9 8 6 5 7 5 5 5 4 6 4 4 3 0 4 7 4 4 5 3 5 4 3 3 3 3 3 2 3 6 6 6 6 9 6 8 9 10 10 9 10 13 13
13 13 12 11 11 12 12 10 9 8 8 8 7 8 10 10 11 15 18 18 16 17 16 14 12 13 14 15 14 11 8 6 12 12 14 15 8 3 4 2 4 4 8 6 3 6 5 4 6 7 4 7 4 4 5 5 5 6 7 6 2 2 2 4 4 4 3 3 3 3 1 4 3 4 5 3 7 9 9 9 6 8 9 11 11 12 14 14
12 12 12 12 12 12 12 11 9 8 8 8 8 9 7 10 10 11 18 19 17 17 17 15 14 14 15 15 16 12 10 4 7 13 13 15 10 8 5 0 3 4 9 5 4 5 6 7 7 7 6 7 4 5 8 6 5 2 8 4 3 2 3 5 4 4 2 1 2 2 4 2 4 4 7 8 8 3 4 3 5 5 4 13 13 14 14 14
12 11 12 11 12 13 12 11 10 9 8 8 9 9 8 8 7 10 10 16 17 16 17 18 17 16 15 17 14 13 13 12 4 10 18 14 13 9 5 2 3 5 9 8 8 6 9 9 9 8 7 8 8 8 8 4 6 6 6 5 2 2 3 2 2 3 2 1 2 3 3 5 5 5 7 9 11 4 5 3 4 3 4 11 12 14 14 14
10 11 11 10 10 10 11 10 10 10 9 9 8 9 8 10 8 10 13 15 18 19 17 18 17 15 17 16 12 16 16 2 4 4 6 19 13 11 7 2 3 1 9 10 9 9 10 10 10 9 8 9 9 10 5 6 5 8 6 6 6 3 2 2 3 0 1 1 2 3 4 5 5 8 1 8 9 11 1 3 4 2 1 9 12 15 16 16
10 9 9 9 9 9 10 9 9 8 9 9 8 8 9 8 10 11 13 15 18 20 21 19 18 15 17 12 12 12 11 8 5 4 6 16 17 14 9 2 3 1 8 11 10 10 11 11 12 8 9 10 7 10 6 5 7 8 9 5 4 3 3 1 2 1 2 1 2 2 4 6 6 5 3 10 11 9 8 4 3 3 4 9 11 14 14 14
10 11 9 8 8 7 8 8 8 7 6 7 6 7 8 8 8 11 12 14 17 18 20 21 22 19 14 8 12 11 14 3 3 6 11 17 17 15 11 4 2 2 5 8 8 10 10 10 11 9 8 11 3 9 7 7 8 11 7 4 5 6 3 1 3 3 2 1 1 4 7 8 3 5 10 15 13 10 3 4 4 5 7 9 11 12 13 14
11 11 11 10 8 7 7 7 8 8 6 5 5 6 7 8 8 8 11 10 17 18 20 22 21 21 12 7 12 15 5 6 5 9 13 16 18 16 11 7 6 4 4 8 9 11 12 8 11 9 7 8 5 9 6 10 1 1 5 4 5 6 4 3 5 5 3 4 3 6 7 5 5 3 5 2 3 4 4 6 6 8 9 10 9 11 12 13
12 12 13 11 9 7 8 8 7 8 7 6 6 5 7 6 6 6 9 10 14 21 21 26 24 20 10 9 13 13 2 6 6 11 14 15 18 15 13 8 7 6 5 8 10 11 10 9 9 3 2 7 5 7 7 3 3 2 3 3 6 5 7 6 6 8 4 5 2 4 8 8 4 4 11 4 5 3 5 6 8 9 9 9 11 11 11 11
12 13 13 13 10 8 8 9 8 7 7 6 6 5 4 4 6 6 8 9 12 18 20 18 26 15 9 11 10 6 2 6 10 10 12 15 13 11 8 9 11 9 9 8 11 9 10 11 7 10 5 5 8 4 9 5 5 3 5 5 7 8 9 12 12 10 6 6 2 2 10 13 10 9 11 14 6 6 7 7 8 9 9 9 10 10 9 10
11 11 13 13 12 9 8 9 9 8 7 6 6 7 5 2 3 3 5 9 12 16 23 24 20 10 9 10 6 3 3 8 12 15 12 10 10 10 9 7 10 10 7 6 7 2 5 6 9 11 9 6 6 3 5 6 5 4 5 6 5 7 10 13 12 11 8 6 6 2 9 10 12 14 11 12 6 6 7 8 8 8 8 9 9 9 10 10
10 11 11 11 12 11 8 9 9 8 8 7 7 8 6 4 2 2 5 7 9 12 19 27 17 12 8 3 0 2 2 8 15 17 16 13 15 13 12 9 5 6 10 12 8 1 4 8 11 10 3 9 6 2 8 5 5 6 4 3 6 6 8 6 8 9 10 7 8 4 10 9 4 4 8 9 7 8 9 9 9 9 9 9 9 9 10 11
10 10 10 11 11 11 9 8 9 8 8 8 7 8 8 5 1 3 1 6 12 15 16 16 8 8 6 2 4 2 8 4 15 17 16 19 17 15 15 14 10 10 4 10 8 6 4 7 11 7 6 5 8 8 5 7 6 7 4 6 8 8 4 7 7 10 9 5 7 8 9 11 12 12 4 5 6 8 9 9 9 9 9 9 9 10 10 11
10 10 10 10 11 11 10 8 7 7 8 7 6 7 8 7 4 2 3 4 10 20 17 14 10 4 6 7 4 4 3 15 15 16 15 17 17 16 16 15 9 8 7 5 3 4 6 6 8 9 7 6 9 8 7 4 7 6 8 6 8 8 9 6 9 7 4 6 9 12 7 4 8 12 8 4 6 7 9 10 10 9 10 10 9 9 9 9
9 10 10 10 9 10 10 9 8 7 7 7 6 6 9 7 6 5 5 5 6 9 13 8 13 7 8 2 5 10 8 12 14 12 14 14 15 15 16 14 10 10 7 7 7 7 9 12 3 3 8 9 9 10 9 9 9 8 7 7 9 11 7 9 8 7 7 8 7 11 10 16 9 2 4 6 5 6 8 9 10 10 8 8 7 8 9 10
9 10 10 9 9 9 10 10 10 8 8 8 6 5 7 8 7 6 1 2 2 5 10 2 11 6 3 4 15 16 13 12 13 13 12 11 16 16 14 12 12 12 10 10 7 11 11 10 7 10 9 12 13 13 12 12 12 10 11 11 11 12 12 11 8 8 7 9 10 9 14 18 14 14 14 10 6 8 9 8 7 8 9 8 7 8 9 9
10 9 9 9 9 7 8 10 10 9 9 11 10 9 9 9 4 3 2 2 3 7 8 8 10 12 3 17 12 14 12 12 12 16 12 15 17 14 13 11 13 16 13 13 11 15 11 8 6 11 14 14 15 15 14 10 11 14 12 10 9 10 9 11 3 7 5 7 7 10 12 14 14 14 13 14 15 13 14 11 9 9 9 8 8 8 8 9
11 10 9 9 7 7 7 8 10 10 12 10 8 5 4 4 2 4 3 4 8 6 5 9 15 9 8 12 13 13 12 15 15 11 14 13 15 19 18 16 16 14 15 14 15 16 10 13 15 17 15 16 17 19 16 13 7 10 11 10 11 10 11 2 3 5 3 4 9 10 14 16 17 15 12 11 9 12 13 13 11 9 9 9 9 9 9 10
12 11 10 8 7 7 6 7 8 9 8 7 8 6 5 8 11 12 6 5 9 13 10 5 11 5 3 18 19 23 18 9 11 15 16 14 16 20 17 18 18 15 17 18 15 13 13 15 18 16 17 17 17 15 15 13 11 10 10 11 10 12 10 9 4 6 3 5 8 9 11 15 16 15 14 12 12 15 14 12 12 12 12 10 11 12 11 10
13 12 11 9 7 7 5 5 6 7 6 7 7 7 2 6 2 3 5 11 15 14 10 6 7 8 6 15 15 17 13 9 8 10 9 17 18 19 19 19 20 19 19 17 13 13 14 19 18 17 15 14 15 14 15 14 10 9 9 9 10 10 11 4 7 5 4 2 9 11 14 16 17 14 13 13 15 15 14 13 12 12 12 12 11 11 11 9
12 12 11 10 8 7 6 4 4 5 6 8 8 9 3 2 3 3 4 4 8 6 11 9 10 7 10 14 18 21 21 15 16 12 13 9 19 17 20 19 20 18 19 18 16 14 14 15 17 17 16 16 15 15 15 14 10 9 9 9 10 7 9 10 5 3 4 4 5 8 13 13 17 17 19 19 18 17 16 16 16 13 14 14 13 11 10 11
11 11 11 9 9 8 7 6 5 6 6 9 9 8 5 3 2 3 3 7 4 4 6 7 11 10 13 14 13 22 23 14 16 20 14 12 20 17 17 23 23 19 19 21 20 16 13 5 15 15 16 16 15 16 16 13 10 11 11 10 9 8 7 7 2 2 3 8 5 9 12 13 14 15 13 13 18 19 17 15 16 14 13 13 10 10 11 12
11 9 11 11 8 8 7 7 6 5 7 8 9 7 5 5 4 4 2 2 4 5 3 3 6 6 8 6 15 17 12 7 11 17 16 17 21 17 18 17 17 19 18 22 18 14 15 9 11 15 17 16 15 14 16 12 10 9 12 11 10 8 7 7 6 6 6 7 6 2 8 9 8 11 11 6 1 6 9 12 14 15 14 9 12 12 11 10
11 11 11 10 9 8 9 6 6 7 9 9 7 8 5 6 4 3 6 1 6 3 5 10 6 11 7 9 12 5 12 10 6 8 11 8 9 11 13 15 11 20 23 22 17 10 12 11 16 17 18 16 16 13 13 14 9 9 9 9 9 11 7 8 6 3 8 10 3 1 7 8 4 11 8 6 7 8 7 10 12 12 12 10 10 11 12 13
13 13 11 11 10 12 8 5 7 8 9 9 8 9 6 4 4 4 8 2 11 6 8 4 6 2 9 12 14 14 18 10 6 6 13 4 6 4 16 13 10 7 13 11 5 10 8 17 17 17 16 15 13 14 12 15 9 9 5 8 12 10 8 8 5 6 9 9 6 8 6 11 12 11 13 13 15 17 16 16 14 12 12 13 14 14 13 12
15 13 12 11 11 13 5 4 9 9 8 6 10 10 9 6 6 2 3 6 7 12 8 6 5 4 4 14 18 13 6 23 13 14 12 7 3 4 4 18 15 19 20 16 18 4 17 16 18 17 15 13 15 12 11 15 11 1 5 8 11 9 8 5 5 7 5 6 8 6 4 6 9 5 11 12 14 14 16 14 12 12 12 14 14 13 13 13
15 14 12 10 10 11 6 4 7 10 6 7 11 10 8 7 5 4 3 7 1 4 2 8 2 7 6 15 18 8 12 11 7 14 7 6 5 3 9 16 12 18 14 14 10 3 7 15 19 15 13 14 12 12 13 14 11 3 2 6 5 4 2 1 3 2 5 4 11 6 7 7 14 7 9 8 8 12 11 8 6 9 11 9 10 10 11 10
15 14 14 13 8 6 5 5 6 1 8 7 11 12 10 11 8 7 10 10 3 1 4 3 7 6 11 14 12 8 14 1 4 10 8 6 4 1 5 8 13 14 6 8 7 4 4 5 3 13 14 11 12 11 11 15 5 7 9 10 8 5 3 2 1 3 3 11 13 9 10 7 11 3 6 7 5 1 1 2 3 3 2 4 5 6 4 4
15 16 14 14 8 7 6 8 7 4 6 8 11 9 10 4 7 8 13 3 7 3 4 11 9 14 17 14 9 11 14 12 13 20 7 2 4 3 8 5 5 7 5 4 4 1 7 7 7 2 3 4 10 11 8 7 13 12 6 8 7 4 2 2 0 1 5 10 3 2 9 13 10 2 4 4 4 1 1 2 3 4 5 5 3 0 0 1
15 16 17 11 7 7 9 6 8 8 5 9 14 11 10 12 4 14 6 5 1 7 11 7 12 13 21 15 8 16 14 11 15 17 15 12 12 11 15 13 8 7 6 12 7 4 6 10 4 5 5 10 13 12 6 9 10 8 8 9 8 4 2 4 3 6 10 10 3 4 4 5 19 13 9 4 8 4 7 7 6 8 8 8 7 1 1 2
15 15 16 10 8 8 6 2 6 9 10 8 11 10 8 9 13 6 7 7 3 9 7 9 11 19 19 19 12 11 12 17 17 19 19 14 14 12 15 12 18 10 13 15 11 9 5 4 1 4 4 7 16 14 9 7 9 8 12 9 8 8 5 8 8 5 5 3 4 4 2 9 11 10 13 18 19 16 2 2 1 5 7 8 8 7 6 4
14 15 12 10 9 7 7 7 0 6 12 12 7 7 7 11 7 14 8 5 2 4 13 8 13 15 24 17 12 10 10 8 22 12 19 14 14 13 13 9 13 4 4 12 9 9 7 4 10 13 9 11 14 14 12 9 13 10 8 11 7 6 4 8 6 10 5 1 4 4 2 5 3 0 6 4 2 1 3 4 4 5 6 7 6 6 6 6
13 13 11 9 9 9 9 7 3 2 7 8 7 7 13 9 8 14 11 5 3 3 8 13 13 15 17 17 14 16 9 7 16 20 17 15 14 12 14 13 17 6 11 14 6 5 14 4 1 15 3 18 14 13 12 15 8 9 9 6 11 12 7 5 2 3 2 2 3 5 7 3 6 7 6 5 6 7 6 8 8 5 4 4 3 4 3 1
10 9 10 9 10 11 10 7 5 5 6 7 8 9 9 9 7 7 9 8 3 5 9 12 11 12 6 7 11 19 10 1 17 16 12 19 19 18 15 10 14 16 15 13 13 10 10 9 3 9 3 15 12 12 12 17 8 10 7 7 7 6 2 3 1 3 1 2 10 5 6 9 10 15 18 15 11 10 11 7 4 4 4 2 2 1 1 2
10 9 10 11 11 10 10 10 8 6 5 4 8 11 7 5 7 10 5 18 8 13 9 13 10 12 9 7 4 17 8 4 16 13 9 13 11 15 16 11 12 15 15 9 9 3 14 7 4 11 13 13 2 7 10 11 4 10 9 9 6 6 6 3 7 2 3 8 6 4 10 7 4 7 1 11 15 14 12 12 4 6 3 3 3 3 2 2
9 9 10 13 13 11 11 10 10 7 4 6 8 6 8 14 9 11 8 13 12 15 9 11 2 13 9 11 7 11 7 14 10 11 11 17 5 15 14 13 18 16 18 13 8 10 12 7 2 4 10 4 1 9 10 3 4 10 9 9 11 6 9 7 1 10 9 8 6 8 11 11 11 11 4 7 8 9 9 7 9 9 6 6 6 5 3 2
7 7 9 15 13 14 12 11 9 7 7 6 9 12 3 9 11 14 12 12 8 13 11 9 2 10 5 11 7 10 10 11 15 10 11 10 7 17 19 15 17 19 17 8 11 8 6 5 7 2 5 5 4 9 12 10 3 4 4 11 9 3 6 8 8 2 2 9 5 6 7 7 10 13 11 8 11 9 6 9 10 11 8 8 6 5 3 1
8 3 10 8 17 15 14 13 8 7 8 12 12 11 4 11 14 17 16 17 14 14 8 9 10 6 11 4 13 9 8 8 17 11 13 10 7 16 22 18 16 22 19 13 6 10 5 4 6 7 5 11 10 10 15 15 12 8 11 11 10 3 2 2 3 7 6 5 8 8 9 7 5 9 12 15 13 8 5 7 8 9 9 7 6 4 3 1
7 5 3 17 18 18 15 10 8 12 11 9 14 14 14 10 10 16 21 21 11 10 10 10 8 11 6 9 11 12 11 12 11 11 10 11 14 11 14 18 18 24 16 10 7 9 3 7 10 11 9 15 11 8 7 14 13 12 14 14 16 12 7 11 10 8 6 7 6 6 11 8 2 5 7 7 9 7 5 5 5 6 8 7 6 5 4 3
8 7 6 15 20 21 15 11 8 9 9 16 15 12 10 10 12 16 18 20 20 7 11 9 13 9 11 9 6 13 9 10 13 10 10 13 17 9 18 27 20 24 18 14 14 4 4 4 11 11 12 13 5 6 4 6 9 13 11 12 14 13 10 8 10 8 3 5 3 2 5 10 6 9 8 8 8 7 6 6 6 7 8 7 7 6 5 4
10 9 8 14 21 21 13 9 10 12 13 12 10 16 16 13 14 14 17 19 18 10 8 12 13 8 6 7 8 9 15 11 19 16 14 15 17 20 15 32 23 24 18 8 9 3 7 4 9 7 7 6 7 2 3 3 2 12 14 12 15 19 19 13 5 3 8 5 6 7 6 13 3 3 3 6 6 5 3 5 5 5 5 6 6 6 5 4
11 10 4 1 17 20 15 13 14 14 12 13 17 17 14 16 15 16 18 20 14 13 10 6 10 14 8 9 5 10 13 6 15 15 12 13 9 11 16 27 30 19 20 15 16 14 8 6 12 9 5 3 4 4 7 6 5 10 16 11 13 15 15 7 3 1 4 11 7 7 9 11 2 1 2 5 6 5 4 5 4 3 5 5 4 4 4 3
6 7 7 5 4 6 11 13 14 14 17 16 15 16 18 15 15 20 18 18 17 11 9 10 10 9 10 13 11 6 13 11 4 16 10 13 5 2 19 26 30 19 17 17 11 11 5 9 11 13 14 14 13 15 18 20 22 11 9 12 10 19 23 10 8 7 6 6 11 9 16 4 5 4 6 4 4 3 4 4 4 4 3 5 4 4 4 3
9 7 8 8 8 5 6 6 10 14 15 16 16 18 20 18 15 19 22 22 19 15 16 10 16 15 12 15 14 14 11 9 0 7 12 4 2 3 14 24 27 19 12 13 16 15 5 8 8 9 14 15 14 3 2 8 10 11 21 21 18 14 17 9 3 5 13 10 11 18 18 4 4 10 8 9 5 7 8 6 6 5 5 5 4 4 4 4
5 11 10 8 7 10 10 10 9 10 15 16 14 12 20 23 17 15 24 15 21 20 16 21 14 15 13 17 17 11 13 12 4 6 16 8 3 3 16 22 21 15 15 11 15 6 2 9 16 13 7 5 2 2 7 16 17 16 14 14 14 12 9 12 13 19 13 7 12 18 17 12 12 10 11 11 9 8 7 8 8 7 8 6 5 4 5 6
8 6 9 10 8 9 12 13 16 16 18 18 15 14 21 24 24 18 15 21 12 23 18 14 21 17 17 19 16 14 15 12 4 8 7 2 4 5 12 14 15 12 16 5 11 11 9 12 15 13 9 4 3 12 13 13 14 14 18 13 16 18 16 17 22 23 10 14 16 3 12 18 19 12 12 12 11 10 10 11 7 5 3 3 5 6 6 7
6 1 6 8 11 10 12 13 21 21 24 23 14 20 21 24 26 23 13 12 20 16 23 17 21 20 19 17 19 16 19 13 9 4 8 8 12 13 9 9 6 10 13 6 8 2 5 8 9 10 6 2 3 10 15 16 14 19 20 22 24 23 24 27 28 24 22 19 17 3 13 19 13 14 12 12 11 12 10 4 2 2 5 7 7 7 7 6
10 8 6 9 11 13 14 14 15 19 18 22 18 20 20 24 26 23 18 16 12 19 26 24 20 18 19 18 19 16 20 20 15 14 14 18 10 12 14 17 13 9 14 11 11 8 11 10 15 13 10 8 3 3 9 13 17 18 19 22 24 24 27 30 27 19 20 23 18 15 8 11 6 8 12 11 12 4 2 6 6 6 8 8 6 6 7 7
3 6 5 4 11 13 13 15 14 14 14 17 19 19 19 26 26 25 22 21 24 20 26 28 22 24 19 19 19 16 18 21 21 23 19 21 18 22 15 14 13 16 13 11 10 6 12 5 9 10 10 5 4 7 7 5 11 15 18 18 22 26 26 28 23 19 16 22 18 9 13 18 7 12 12 12 4 3 9 10 9 9 9 5 6 9 9 9
4 2 2 1 10 11 12 13 16 15 19 15 14 20 18 28 26 24 19 19 30 26 23 29 27 18 18 23 26 23 20 21 21 13 16 16 4 1 5 6 18 21 17 19 15 15 14 9 10 12 11 11 6 7 7 7 5 5 13 22 31 33 24 12 13 14 23 19 7 14 23 10 9 13 13 7 6 10 11 9 9 9 6 8 11 12 11 8
Wind_Direction
193 218 213 181 181 194 203 199 197 207 210 209 219 216 203 204 195 185 176 174 174 180 192 188 172 166 158 148 140 137 156 181 181 194 201 199 74 78 40 359 202 148 192 201 181 185 183 188 190 171 191 211 114 212 109 310 345 262 226 226 236 250 229 89 309 42 36 10 66 95 175 223 185 158 160 198 232 247 138 215 152 95 195 87 97 133 131 141
184 208 194 187 184 202 204 196 193 199 210 221 204 216 212 204 197 186 182 177 177 177 189 194 175 161 153 145 142 152 177 194 198 201 206 119 99 73 51 22 315 182 201 203 185 193 182 180 193 205 202 210 120 176 169 168 244 247 254 244 244 233 56 38 52 45 356 59 37 63 41 226 35 149 150 227 209 206 216 217 193 200 191 147 132 155 147 151
188 191 191 182 180 190 205 197 190 195 211 216 233 204 211 205 200 189 185 181 178 174 187 187 168 158 152 145 145 166 188 191 207 215 200 125 155 167 69 13 322 199 221 198 196 206 194 175 183 207 210 238 176 182 200 146 200 202 295 239 241 53 87 65 68 68 46 3 12 33 92 259 136 213 106 232 254 202 231 215 199 217 199 182 156 164 157 167
194 188 187 190 188 187 192 192 192 198 201 210 220 225 202 207 202 202 186 182 178 169 173 176 166 157 155 146 149 165 177 181 221 208 212 157 174 189 102 19 329 227 251 259 220 223 223 204 185 212 202 248 147 239 200 146 217 144 227 232 287 113 195 117 95 85 67 7 346 354 66 241 186 218 198 216 242 243 240 242 224 215 214 177 162 167 163 173
194 189 188 188 193 192 186 187 191 195 197 215 197 240 207 206 202 197 187 177 177 174 171 166 161 160 156 151 158 161 148 193 229 212 171 142 160 184 131 277 337 266 239 232 207 213 203 199 207 209 229 224 207 208 233 163 232 113 222 228 72 334 269 102 95 66 54 64 302 279 275 52 53 232 230 236 240 249 33 32 229 254 245 161 167 171 170 177
195 189 185 189 195 190 185 180 185 191 196 202 199 218 218 220 202 206 194 180 178 176 169 163 165 164 159 157 169 175 164 211 95 184 142 150 158 152 136 152 4 307 279 217 203 185 197 200 196 203 203 232 206 218 201 184 165 227 191 225 243 47 342 75 92 60 286 211 258 283 27 337 254 265 223 236 241 274 74 46 23 6 326 160 164 162 176 183
190 182 186 188 193 193 182 167 176 185 188 203 204 194 216 196 207 211 210 196 181 176 168 163 160 160 160 163 177 185 201 189 160 84 183 157 153 145 141 138 106 270 272 214 192 188 193 189 199 200 214 223 213 225 144 167 194 241 240 170 191 149 131 59 45 155 231 255 281 4 313 279 283 269 324 244 247 263 194 117 90 61 265 157 165 173 180 186
179 179 182 185 195 178 183 161 157 169 184 199 205 197 201 199 195 206 214 199 182 175 169 159 158 160 161 166 155 199 210 223 89 133 182 161 151 142 121 109 105 58 271 217 188 192 187 200 193 195 221 214 198 214 148 189 200 216 236 175 150 174 142 162 309 242 182 213 301 278 267 265 264 293 8 259 259 258 250 145 145 147 169 169 181 182 186 189
182 170 174 180 190 171 172 165 150 148 169 187 192 201 199 199 198 196 218 205 180 176 170 159 161 158 187 175 168 168 214 135 22 117 151 153 148 137 134 128 119 151 261 235 211 196 199 201 205 202 204 216 156 210 152 211 213 213 239 156 160 196 174 194 268 217 212 271 211 283 265 259 248 32 268 261 258 255 236 165 192 190 188 189 196 191 191 193
173 165 169 169 191 178 158 157 151 153 162 182 183 192 208 199 198 196 203 221 185 177 169 159 156 163 173 190 177 200 149 97 126 140 154 146 136 132 146 124 139 173 232 249 233 209 206 200 206 192 279 255 166 210 182 214 10 1 188 183 200 195 201 194 239 219 251 264 242 269 278 277 113 243 275 142 49 109 166 220 202 205 207 200 199 196 199 200
167 166 171 170 180 187 160 158 158 153 165 175 165 184 203 213 197 198 196 205 200 179 176 163 158 158 177 199 178 201 60 167 129 138 148 144 137 146 159 153 148 161 241 250 234 231 220 234 200 177 221 227 175 207 195 179 71 124 138 180 219 212 220 221 232 246 253 259 165 258 274 281 217 198 236 250 145 173 199 202 200 209 212 209 205 198 200 205
165 171 168 165 171 186 167 159 160 159 162 170 153 154 190 211 214 199 197 200 206 188 159 161 163 164 170 195 204 175 215 147 146 140 138 146 147 140 134 156 166 174 187 229 220 234 225 226 205 188 195 160 215 100 216 121 227 171 188 230 220 229 236 222 229 231 218 245 172 331 286 262 218 226 216 240 208 194 216 217 206 212 216 212 207 203 198 205
167 169 167 165 164 179 170 161 163 162 155 155 148 133 136 189 205 161 184 183 204 202 169 166 163 170 159 193 205 20 252 150 138 138 141 137 130 138 140 161 175 184 202 231 232 277 251 232 199 214 236 217 177 214 85 172 177 171 211 253 243 233 242 227 218 227 217 228 120 88 267 251 231 214 207 226 187 194 218 222 212 211 213 213 207 204 203 202
165 163 165 160 163 169 171 164 164 167 158 155 151 137 135 127 76 161 175 194 196 202 187 165 159 164 165 202 156 274 288 156 142 141 148 144 140 150 152 156 174 198 207 212 219 258 245 216 215 216 195 247 174 128 169 139 170 204 148 226 248 248 246 125 178 185 215 170 175 178 256 264 320 170 228 213 202 201 228 229 223 215 209 207 205 205 207 204
158 157 159 161 160 161 165 161 166 167 160 155 157 139 134 154 147 44 164 200 196 186 169 155 171 139 183 121 301 241 297 222 160 154 150 157 145 142 163 163 182 185 178 191 159 181 194 214 203 167 179 42 111 177 151 190 179 213 169 222 218 234 219 134 154 174 212 135 203 184 251 262 260 267 178 174 199 212 234 242 235 220 215 207 204 209 210 211
150 146 147 155 160 156 159 151 154 161 154 144 147 137 132 135 161 105 352 242 197 191 166 173 178 193 155 177 165 110 195 172 170 156 158 160 158 157 153 158 145 122 146 131 135 152 183 171 192 213 141 183 184 191 193 171 205 201 229 225 209 215 236 204 165 177 196 110 178 199 252 257 245 238 223 155 201 223 239 243 245 238 222 216 211 211 214 214
149 145 144 147 151 153 149 149 144 143 131 133 135 136 122 111 104 100 345 332 214 188 178 178 169 190 182 42 96 163 170 176 146 155 161 169 166 145 147 142 148 149 140 133 167 168 177 204 80 196 194 200 199 202 204 216 206 205 208 236 225 229 226 241 111 211 173 198 194 208 240 251 254 173 187 174 219 217 233 240 245 249 238 223 224 222 218 218
147 144 140 143 149 146 141 143 139 139 122 124 129 127 128 126 120 95 187 274 250 200 180 347 155 141 230 152 169 188 159 152 159 145 157 162 177 148 155 154 144 139 145 154 162 190 179 197 165 208 195 209 203 208 207 210 203 198 194 209 223 225 234 253 228 133 198 185 239 213 230 252 256 259 259 248 207 238 248 243 239 239 237 231 226 227 231 231
150 138 133 135 135 137 133 131 139 133 130 115 116 107 117 125 131 112 159 157 205 176 195 177 172 184 164 195 194 152 154 135 129 148 151 173 170 158 168 160 157 153 169 181 177 198 178 194 187 219 207 201 204 206 209 218 201 204 201 210 224 226 217 231 189 134 192 187 211 232 247 255 255 251 247 245 253 248 254 250 245 242 239 237 231 227 231 235
146 137 135 133 121 125 127 128 131 140 137 141 127 129 123 114 152 214 152 207 243 266 338 156 183 204 42 134 161 134 113 138 139 166 152 159 158 171 173 171 169 179 175 190 174 200 169 197 197 208 204 204 206 208 211 220 213 215 224 231 231 236 239 158 171 127 136 259 245 252 258 263 263 262 262 260 246 246 251 251 247 238 233 236 240 235 227 228
155 146 140 124 114 115 131 132 133 141 180 147 149 164 180 164 165 214 189 237 239 251 268 296 242 22 341 151 155 144 141 148 153 156 164 158 172 164 171 174 171 184 191 188 179 179 190 212 213 211 208 203 208 209 213 224 218 215 226 226 230 235 248 235 190 130 140 233 265 257 267 269 270 270 266 260 252 248 246 248 247 245 240 236 234 237 232 230
161 154 138 134 123 125 119 132 132 142 189 157 175 183 200 157 40 339 152 227 240 231 249 238 275 269 144 156 151 137 117 114 103 149 150 171 165 176 170 186 177 188 184 187 177 183 199 215 212 207 207 202 206 207 215 218 212 228 230 219 235 234 246 205 123 144 152 217 265 264 266 270 272 272 269 262 255 251 242 239 244 248 247 244 239 235 234 225
161 153 147 132 140 136 137 126 123 146 174 172 179 195 168 82 188 4 70 358 277 163 235 216 225 205 160 153 172 154 147 155 155 179 182 198 168 198 169 186 186 189 183 185 181 182 202 219 213 202 202 202 201 207 210 212 208 214 215 225 225 229 224 229 176 173 194 240 296 303 293 280 276 265 259 253 250 252 244 235 233 226 237 242 242 236 225 227
157 150 141 142 135 155 154 152 159 189 197 186 189 182 130 158 89 161 89 204 257 239 201 210 185 202 174 163 171 176 161 171 149 175 181 187 176 178 179 189 183 190 188 189 193 195 200 192 199 196 200 202 199 197 203 203 206 213 224 229 236 219 226 264 108 265 205 242 263 283 280 269 260 262 255 246 235 235 236 233 233 229 226 230 239 242 236 237
157 140 142 138 153 145 168 157 192 190 178 194 202 164 121 90 103 163 88 26 267 258 103 265 183 177 174 349 173 187 160 128 178 164 171 182 171 176 188 185 185 192 190 188 188 200 212 205 193 191 195 201 203 201 205 202 219 209 221 238 235 231 242 221 270 311 268 264 156 311 307 278 259 256 262 279 259 225 236 237 231 230 230 211 223 228 229 226
144 139 140 139 147 163 140 197 192 179 191 199 188 174 152 99 88 145 150 236 264 223 127 225 124 212 119 199 150 156 131 176 140 157 154 190 178 185 167 191 190 185 184 179 189 210 204 175 196 191 198 199 208 212 199 209 214 210 209 208 243 253 252 264 272 286 265 258 114 312 263 283 323 296 275 268 257 250 242 228 230 230 231 224 223 228 225 221
153 150 147 146 163 156 171 190 150 165 188 203 178 168 167 129 120 136 136 203 262 160 175 120 189 196 174 167 150 128 185 172 72 114 173 223 156 294 180 172 184 202 174 168 191 204 178 179 188 195 196 199 202 208 200 204 203 220 90 180 216 225 236 249 265 268 267 306 287 237 254 284 280 266 275 268 267 265 259 253 244 231 222 218 218 217 220 227
159 154 149 155 165 185 180 169 159 184 191 141 166 160 149 127 103 27 209 202 239 113 195 172 211 7 248 164 159 168 77 125 153 191 178 176 208 193 223 175 179 177 174 176 192 91 172 175 182 182 193 197 206 202 180 196 211 111 124 180 200 211 233 247 267 264 281 1 280 263 245 276 258 259 246 239 250 250 252 249 243 242 229 231 228 224 217 216
170 157 159 159 166 209 264 233 177 191 164 140 154 152 135 138 159 158 171 217 98 105 322 158 141 181 153 159 177 167 140 172 123 149 151 45 3 187 176 183 178 174 175 193 195 68 194 180 181 186 188 201 198 195 197 191 198 38 164 133 138 130 98 277 254 312 291 281 263 238 206 256 276 265 267 239 232 257 262 258 238 231 236 237 247 242 232 223
171 163 161 160 154 197 228 236 216 74 151 144 146 137 146 138 102 184 174 237 99 100 162 138 177 173 160 169 172 157 138 100 89 124 142 157 175 356 357 155 172 158 141 41 57 77 93 354 290 187 201 197 193 197 187 189 158 133 130 109 103 104 118 81 45 334 294 258 263 224 219 229 291 287 214 236 241 240 171 189 213 226 252 268 272 269 245 234
175 169 167 166 182 183 193 210 194 188 173 140 135 140 146 154 185 171 206 218 71 219 139 162 162 146 165 178 165 169 145 142 141 142 144 89 168 212 134 67 343 115 82 50 73 104 135 149 183 154 3 175 121 72 47 153 132 152 147 131 122 96 113 152 1 172 250 257 70 143 210 199 238 194 201 153 81 249 52 308 276 280 276 278 292 334 25 284
179 175 172 177 190 179 195 204 173 180 151 137 146 165 157 166 202 204 174 63 154 183 169 142 164 155 168 189 181 166 158 132 152 153 152 172 175 172 182 166 155 112 158 163 177 154 160 176 120 96 295 154 147 141 119 138 166 164 159 162 188 199 138 235 207 230 224 250 94 62 111 223 239 244 267 281 278 174 235 264 272 293 301 297 285 254 194 220
184 184 177 192 181 195 186 28 177 170 154 149 165 171 168 182 200 178 193 138 248 142 172 148 162 170 165 180 205 171 161 157 166 161 154 170 172 200 193 176 178 167 169 178 142 146 154 49 24 136 166 234 181 172 149 159 182 169 185 173 190 199 182 236 222 242 276 188 128 133 97 264 281 291 244 244 256 264 288 89 254 264 278 286 279 280 282 269
186 188 190 196 202 196 187 202 335 169 174 163 185 176 194 196 203 168 211 191 64 54 145 146 167 170 167 182 189 163 177 161 158 164 162 165 179 177 199 191 190 152 102 147 145 164 142 199 223 171 204 191 210 204 172 145 156 179 173 185 200 197 191 212 207 215 222 293 124 152 137 243 216 79 10 359 320 332 165 215 217 230 256 266 270 276 273 268
187 197 201 195 205 203 205 207 179 184 201 164 181 220 193 195 187 175 209 160 323 164 187 150 160 184 180 182 172 182 189 165 172 150 172 165 188 183 181 185 197 203 147 152 193 169 183 136 200 177 49 166 188 202 153 136 148 179 183 195 217 222 222 247 16 302 246 223 189 191 226 272 233 1 278 269 262 239 234 252 250 244 233 227 269 264 278 304
172 202 201 208 203 197 204 194 185 173 215 181 194 227 214 173 197 170 193 141 146 191 167 168 162 185 192 194 177 176 221 173 172 161 175 177 175 182 184 185 192 198 168 179 149 181 180 199 106 95 182 169 180 196 175 149 176 169 163 203 196 23 263 249 123 164 43 297 261 192 252 257 276 271 253 247 233 237 236 251 189 244 210 204 246 14 63 32
198 185 204 206 207 195 188 185 190 166 183 225 197 221 225 239 244 175 154 183 173 137 176 179 189 171 184 201 206 189 154 121 173 163 174 166 192 190 176 194 195 196 207 159 165 222 167 132 105 143 155 177 70 177 174 188 114 134 198 198 101 51 356 248 232 158 225 249 262 177 236 259 232 284 31 212 229 236 241 248 192 176 182 180 117 121 83 39
189 203 220 214 197 192 178 170 177 176 175 213 230 230 208 226 216 226 175 172 166 181 179 192 184 183 184 180 195 200 177 167 180 177 162 175 192 176 177 181 192 202 197 195 161 174 130 101 184 311 157 91 170 164 174 171 261 193 188 135 156 197 213 207 215 239 226 237 273 249 243 245 231 240 153 158 177 180 200 178 171 169 177 141 141 122 110 63
191 205 232 222 194 187 167 154 174 165 195 211 223 242 229 254 219 225 210 190 176 185 198 196 164 203 171 192 165 162 194 195 165 186 157 194 179 186 186 169 183 199 199 193 198 150 151 117 138 23 160 156 143 180 189 180 200 310 131 178 213 321 213 179 201 311 268 255 250 273 205 254 209 226 225 199 182 177 167 177 178 175 165 152 143 136 113 71
172 186 247 172 169 178 157 159 156 171 189 211 211 233 191 217 236 221 222 204 193 187 205 173 201 166 205 209 159 160 205 221 176 183 187 173 197 160 186 191 175 186 192 199 187 156 153 119 148 154 162 146 188 198 200 177 164 172 181 186 190 220 2 280 198 214 212 238 240 268 269 250 244 192 203 222 214 212 179 184 176 176 165 156 147 141 162 151
183 212 223 144 158 160 157 155 161 192 198 217 228 226 221 220 208 228 224 217 225 195 187 198 175 201 169 178 196 175 174 189 194 188 191 175 185 162 209 182 179 177 173 176 146 167 106 177 142 145 165 192 203 196 210 183 184 182 184 187 186 170 172 182 219 192 221 227 244 253 262 268 168 132 192 210 204 165 125 125 139 157 167 171 159 167 184 190
163 209 202 157 148 150 152 166 193 184 203 208 209 209 226 225 242 223 225 217 221 214 212 203 193 163 182 205 171 180 173 186 188 196 204 183 200 217 179 188 180 165 164 175 177 155 157 101 123 165 182 191 134 16 54 359 203 201 196 201 187 195 202 203 212 192 168 224 15 294 324 276 127 163 171 186 142 128 144 166 169 185 196 188 168 174 183 194
186 210 83 161 150 151 154 187 180 193 209 218 217 220 225 225 223 221 222 216 217 203 222 214 192 143 195 177 193 199 183 188 184 196 191 207 204 204 173 181 172 173 174 158 109 266 92 117 96 88 90 63 75 102 345 19 316 200 219 220 202 203 199 204 215 134 186 178 225 242 250 273 109 54 148 97 108 125 149 179 179 173 190 188 172 174 194 201
201 216 163 111 179 161 169 193 193 198 208 220 215 224 215 231 227 223 220 215 211 196 207 222 176 191 164 172 187 207 190 191 207 203 203 195 205 191 172 178 174 177 177 167 167 182 161 192 134 133 124 169 175 145 203 231 233 221 205 198 217 208 203 205 70 133 218 201 198 192 238 255 93 285 183 131 139 171 201 196 198 199 162 150 167 203 198 213
215 226 221 195 263 238 196 180 189 192 204 203 201 215 217 224 229 228 220 220 208 201 171 217 228 139 200 172 189 211 218 220 176 220 211 188 188 247 172 185 180 179 193 176 171 154 172 152 154 156 163 173 183 189 190 197 208 201 207 176 203 201 196 152 196 198 231 214 180 201 235 209 132 187 183 179 169 172 194 206 178 206 204 174 176 183 206 210
199 212 198 198 198 208 279 283 209 193 198 203 207 215 214 223 223 227 226 230 211 190 205 189 214 198 190 170 192 207 231 229 299 192 206 176 124 235 173 180 182 188 167 119 145 165 170 170 184 173 180 192 195 156 85 104 106 172 198 194 181 198 193 184 172 196 219 212 187 221 231 215 187 177 175 189 190 206 187 185 182 181 203 210 203 196 199 217
157 221 193 175 159 229 220 223 241 226 214 198 214 198 216 219 221 221 213 227 212 205 203 206 190 191 191 182 195 187 211 238 249 202 194 174 6 310 174 177 183 169 119 135 156 135 96 175 195 198 191 27 6 171 143 146 170 186 160 183 176 180 183 179 188 216 200 81 234 227 219 231 221 178 184 185 189 191 181 181 185 187 196 187 195 217 204 233
221 219 212 197 196 192 201 216 209 221 232 216 218 204 212 212 214 219 202 222 211 206 200 212 208 197 183 189 178 201 204 225 256 205 118 71 143 161 163 175 180 146 142 160 177 175 170 194 194 197 180 54 154 134 145 155 168 156 169 160 165 190 194 202 217 226 161 202 227 168 174 216 225 197 197 193 180 188 191 199 189 175 149 201 230 228 232 238
239 259 208 193 222 209 197 197 197 209 216 217 228 221 216 212 216 213 207 187 213 212 205 201 202 191 188 174 189 200 190 199 221 229 181 155 161 155 148 166 189 160 158 143 186 187 151 225 184 190 199 101 187 177 155 160 158 162 172 182 188 189 200 209 221 215 205 224 230 204 189 214 218 206 207 195 188 199 198 138 107 228 229 229 228 219 222 236
199 196 194 191 229 235 233 226 211 204 218 208 215 221 223 220 219 214 210 186 201 210 199 210 190 189 185 185 189 199 195 198 182 189 193 161 164 173 175 178 156 193 170 173 174 213 187 198 174 179 199 218 224 264 178 164 162 181 186 183 188 196 208 216 221 214 217 238 236 228 244 260 235 224 203 194 197 157 52 233 239 253 245 239 235 234 239 245
203 205 221 202 210 225 232 233 228 226 218 207 211 214 221 223 222 214 215 207 204 201 197 203 185 183 186 185 188 198 180 193 197 198 182 176 178 183 166 193 167 168 172 172 179 182 200 194 158 167 195 195 202 185 184 168 173 179 185 190 196 202 212 218 217 207 200 224 224 242 267 253 175 193 218 207 122 175 222 234 244 248 250 248 250 254 256 255
220 268 62 215 246 216 218 217 229 233 238 229 220 214 214 217 221 216 227 216 206 195 188 188 191 176 190 190 194 196 188 193 198 196 185 192 346 98 349 146 171 170 175 185 177 179 184 169 168 170 194 205 165 174 145 119 110 191 202 198 203 208 212 222 227 212 214 218 189 214 236 225 165 190 194 197 221 223 234 241 253 259 253 244 245 245 245 254